Time,TemperatureF,DewpointF,PressureIn,WindDirection,WindDirectionDegrees,WindSpeedMPH,WindSpeedGustMPH,Humidity,HourlyPrecipIn,Conditions,Clouds,dailyrainin,SoftwareType,DateUTC
2013-01-13 00:00:00,20.0,11.5,29.39,NW,315,11.0,16.0,69,0.00,,,-99.99,Weather View 32 v60,2013-01-13 06:00:00,
2013-01-13 00:30:00,20.0,12.1,29.39,North,0,2.0,15.0,71,0.00,,,-99.99,Weather View 32 v60,2013-01-13 06:30:00,
2013-01-13 01:00:00,19.0,11.5,29.35,North,0,5.0,13.0,72,0.00,,,-99.99,Weather View 32 v60,2013-01-13 07:00:00,
2013-01-13 01:30:00,18.0,9.9,29.38,NW,315,6.0,17.0,70,0.00,,,-99.99,Weather View 32 v60,2013-01-13 07:30:00,
2013-01-13 02:00:00,18.0,10.2,29.38,NW,315,5.0,17.0,71,0.00,,,-99.99,Weather View 32 v60,2013-01-13 08:00:00,
2013-01-13 02:30:00,17.0,9.5,29.40,West,270,1.0,12.0,72,0.00,,,-99.99,Weather View 32 v60,2013-01-13 08:30:00,
2013-01-13 03:00:00,17.0,9.8,29.40,NNW,338,3.0,11.0,73,0.00,,,-99.99,Weather View 32 v60,2013-01-13 09:00:00,
2013-01-13 03:30:00,16.0,9.5,29.38,NW,315,5.0,11.0,75,0.00,,,-99.99,Weather View 32 v60,2013-01-13 09:30:00,
2013-01-13 04:00:00,15.0,8.2,29.38,North,0,5.0,12.0,74,0.00,,,-99.99,Weather View 32 v60,2013-01-13 10:00:00,
2013-01-13 04:30:00,15.0,8.2,29.41,NNW,338,1.0,12.0,74,0.00,,,-99.99,Weather View 32 v60,2013-01-13 10:30:00,
2013-01-13 05:00:00,14.0,7.2,29.43,WNW,292,4.0,12.0,74,0.00,,,-99.99,Weather View 32 v60,2013-01-13 11:00:00,
2013-01-13 05:30:00,14.0,7.5,29.44,WNW,292,3.0,10.0,75,0.00,,,-99.99,Weather View 32 v60,2013-01-13 11:30:00,
2013-01-13 06:00:00,14.0,7.8,29.44,WNW,292,7.0,11.0,76,0.00,,,-99.99,Weather View 32 v60,2013-01-13 12:00:00,
2013-01-13 06:30:00,13.0,7.2,29.45,WNW,292,5.0,11.0,77,0.00,,,-99.99,Weather View 32 v60,2013-01-13 12:30:00,
2013-01-13 07:00:00,13.0,7.4,29.46,West,270,5.0,12.0,78,0.00,,,-99.99,Weather View 32 v60,2013-01-13 13:00:00,
2013-01-13 07:30:00,12.0,6.5,29.49,WSW,248,5.0,12.0,78,0.00,,,-99.99,Weather View 32 v60,2013-01-13 13:30:00,
2013-01-13 08:00:00,13.0,7.4,29.48,WNW,292,8.0,13.0,78,0.00,,,-99.99,Weather View 32 v60,2013-01-13 14:00:00,
2013-01-13 08:30:00,14.0,7.5,29.48,NNW,338,6.0,13.0,75,0.00,,,-99.99,Weather View 32 v60,2013-01-13 14:30:00,
2013-01-13 09:00:00,15.0,8.2,29.48,WNW,292,3.0,13.0,74,0.00,,,-99.99,Weather View 32 v60,2013-01-13 15:00:00,
2013-01-13 09:30:00,15.0,7.3,29.45,NW,315,10.0,13.0,71,0.00,,,-99.99,Weather View 32 v60,2013-01-13 15:30:00,
2013-01-13 10:00:00,15.0,7.3,29.43,WSW,248,4.0,14.0,71,0.00,,,-99.99,Weather View 32 v60,2013-01-13 16:00:00,
2013-01-13 10:30:00,16.0,7.0,29.42,NW,315,6.0,15.0,67,0.00,,,-99.99,Weather View 32 v60,2013-01-13 16:30:00,
2013-01-13 11:00:00,17.0,7.6,29.42,WNW,292,5.0,16.0,66,0.00,,,-99.99,Weather View 32 v60,2013-01-13 17:00:00,
2013-01-13 11:30:00,18.0,7.5,29.43,WNW,292,6.0,16.0,63,0.00,,,-99.99,Weather View 32 v60,2013-01-13 17:30:00,
2013-01-13 12:00:00,18.0,7.2,29.43,West,270,6.0,16.0,62,0.00,,,-99.99,Weather View 32 v60,2013-01-13 18:00:00,
2013-01-13 12:30:00,18.0,7.2,29.44,NNW,338,7.0,16.0,62,0.00,,,-99.99,Weather View 32 v60,2013-01-13 18:30:00,
2013-01-13 13:00:00,18.0,7.2,29.42,NNW,338,10.0,16.0,62,0.00,,,-99.99,Weather View 32 v60,2013-01-13 19:00:00,
2013-01-13 13:30:00,17.0,7.3,29.43,NW,315,7.0,16.0,65,0.00,,,-99.99,Weather View 32 v60,2013-01-13 19:30:00,
2013-01-13 14:00:00,16.0,6.7,29.45,WNW,292,5.0,18.0,66,0.00,,,-99.99,Weather View 32 v60,2013-01-13 20:00:00,
2013-01-13 14:30:00,16.0,7.0,29.46,NW,315,6.0,18.0,67,0.00,,,-99.99,Weather View 32 v60,2013-01-13 20:30:00,
2013-01-13 15:00:00,16.0,7.6,29.48,WSW,248,6.0,15.0,69,0.00,,,-99.99,Weather View 32 v60,2013-01-13 21:00:00,
2013-01-13 15:30:00,16.0,7.6,29.47,NW,315,4.0,14.0,69,0.00,,,-99.99,Weather View 32 v60,2013-01-13 21:30:00,
2013-01-13 16:00:00,16.0,7.6,29.49,NNW,338,6.0,15.0,69,0.00,,,-99.99,Weather View 32 v60,2013-01-13 22:00:00,
2013-01-13 16:30:00,15.0,7.6,29.50,West,270,9.0,15.0,72,0.00,,,-99.99,Weather View 32 v60,2013-01-13 22:30:00,
2013-01-13 17:00:00,15.0,8.2,29.52,West,270,7.0,14.0,74,0.00,,,-99.99,Weather View 32 v60,2013-01-13 23:00:00,
2013-01-13 17:30:00,15.0,8.2,29.52,WNW,292,6.0,15.0,74,0.00,,,-99.99,Weather View 32 v60,2013-01-13 23:30:00,
2013-01-13 18:30:00,15.0,6.4,29.54,WNW,292,8.0,19.0,68,0.00,,,-99.99,Weather View 32 v60,2013-01-14 00:30:00,
2013-01-13 19:00:00,15.0,6.4,29.54,NNW,338,3.0,19.0,68,0.00,,,-99.99,Weather View 32 v60,2013-01-14 01:00:00,
2013-01-13 19:30:00,15.0,6.4,29.56,WSW,248,13.0,19.0,68,0.00,,,-99.99,Weather View 32 v60,2013-01-14 01:30:00,
2013-01-13 20:00:00,15.0,5.7,29.56,North,0,6.0,19.0,66,0.00,,,-99.99,Weather View 32 v60,2013-01-14 02:00:00,
2013-01-13 20:30:00,14.0,4.7,29.58,NNW,338,5.0,22.0,66,0.00,,,-99.99,Weather View 32 v60,2013-01-14 02:30:00,
2013-01-13 21:00:00,13.0,3.8,29.60,WNW,292,7.0,22.0,66,0.00,,,-99.99,Weather View 32 v60,2013-01-14 03:00:00,
2013-01-13 21:30:00,13.0,4.4,29.61,WSW,248,6.0,20.0,68,0.00,,,-99.99,Weather View 32 v60,2013-01-14 03:30:00,
2013-01-13 22:00:00,13.0,4.8,29.62,WNW,292,12.0,18.0,69,0.00,,,-99.99,Weather View 32 v60,2013-01-14 04:00:00,
2013-01-13 22:30:00,12.0,4.4,29.63,NW,315,6.0,21.0,71,0.00,,,-99.99,Weather View 32 v60,2013-01-14 04:30:00,
2013-01-13 23:00:00,12.0,4.7,29.63,WNW,292,6.0,21.0,72,0.00,,,-99.99,Weather View 32 v60,2013-01-14 05:00:00,
2013-01-13 23:30:00,12.0,5.3,29.64,West,270,3.0,17.0,74,0.00,,,-99.99,Weather View 32 v60,2013-01-14 05:30:00,